sat.trackr.live / text

‹ back to catalog

STARLINK-33679

NORAD 63460 · 2025-070A

PAYLOAD ACTIVE UNKNOWN

§ Identity

Operator
Country
US
Launch date
2025-04-06
Launch site
AFETR
Launch vehicle
Mass (kg)
RCS (m²)

Purposes: comms

External: N2YO · Heavens-Above · Gunter

§ Orbital elements

Epoch: 2026-05-25T03:06:19.842912Z

Period
94.27 min
Inclination
42.9985°
Eccentricity
0.0001522
Mean motion
15.27587720 rev/d
Perigee alt
482.0 km
Apogee alt
484.1 km
Semi-major
6,861.2 km
B*
7.6488e-4
RAAN
188.4239°
Arg perigee
274.0858°
Mean anomaly
85.9819°
Rev number
6,466

§ Raw data

STARLINK-336791 63460U 25070A   26145.12939633  .00020850  00000+0  76488-3 0  99972 63460  42.9985 188.4239 0001522 274.0858  85.9819 15.27587720 64663

JSON: /api/v1/satellites/63460 · /tle

For live sub-satellite position, see the globe view (requires WebGL).

§ Visibility from observer

Set your observer location to see the next 7 days of passes ≥ 10°. The values pass through the URL so the page stays shareable.

No JS? Fill the form by hand. The geolocation button needs JavaScript.